TimeCDT,TemperatureF,Dew PointF,Humidity,Sea Level PressureIn,VisibilityMPH,Wind Direction,Wind SpeedMPH,Gust SpeedMPH,PrecipitationIn,Events,Conditions,WindDirDegrees,DateUTC
12:15 AM,55.9,45.5,68,30.14,10.0,SW,9.2,-,N/A,,Clear,230,2013-04-27 05:15:00
12:35 AM,56.5,45.5,67,30.15,10.0,SW,12.7,18.4,N/A,,Scattered Clouds,230,2013-04-27 05:35:00
12:55 AM,56.3,45.1,66,30.15,10.0,SW,8.1,-,N/A,,Scattered Clouds,230,2013-04-27 05:55:00
1:15 AM,55.9,45.0,67,30.15,10.0,SW,8.1,16.1,N/A,,Scattered Clouds,230,2013-04-27 06:15:00
1:35 AM,55.4,45.0,68,30.15,10.0,SSW,4.6,-,N/A,,Clear,210,2013-04-27 06:35:00
1:55 AM,54.3,44.8,70,30.16,10.0,SW,5.8,-,N/A,,Clear,220,2013-04-27 06:55:00
2:15 AM,53.6,44.6,72,30.15,10.0,SW,5.8,-,N/A,,Clear,220,2013-04-27 07:15:00
2:35 AM,53.1,44.2,72,30.15,10.0,SW,4.6,-,N/A,,Clear,230,2013-04-27 07:35:00
2:55 AM,53.1,44.1,71,30.15,10.0,SW,4.6,-,N/A,,Clear,220,2013-04-27 07:55:00
3:15 AM,52.7,43.9,72,30.15,10.0,SW,6.9,-,N/A,,Clear,220,2013-04-27 08:15:00
3:35 AM,52.2,43.9,73,30.15,10.0,SSW,4.6,-,N/A,,Scattered Clouds,210,2013-04-27 08:35:00
3:55 AM,52.9,44.2,72,30.15,10.0,SW,5.8,-,N/A,,Overcast,220,2013-04-27 08:55:00
4:15 AM,52.7,44.2,73,30.15,10.0,SW,6.9,-,N/A,,Overcast,220,2013-04-27 09:15:00
4:35 AM,52.0,44.1,74,30.15,10.0,SW,4.6,-,N/A,,Scattered Clouds,220,2013-04-27 09:35:00
4:55 AM,51.3,44.1,76,30.15,10.0,SSW,5.8,-,N/A,,Scattered Clouds,210,2013-04-27 09:55:00
5:15 AM,50.9,44.1,77,30.15,10.0,SW,6.9,-,N/A,,Mostly Cloudy,220,2013-04-27 10:15:00
6:35 AM,49.8,44.1,81,30.16,10.0,SW,6.9,-,N/A,,Scattered Clouds,220,2013-04-27 11:35:00
6:55 AM,50.4,44.6,81,30.16,10.0,SW,6.9,-,N/A,,Clear,220,2013-04-27 11:55:00
7:15 AM,51.1,44.8,79,30.17,10.0,SW,8.1,-,N/A,,Clear,230,2013-04-27 12:15:00
7:35 AM,52.2,45.1,77,30.17,10.0,WSW,10.4,-,N/A,,Clear,240,2013-04-27 12:35:00
7:55 AM,52.2,45.1,77,30.17,10.0,SW,8.1,-,N/A,,Scattered Clouds,230,2013-04-27 12:55:00
8:15 AM,54.0,46.0,75,30.17,10.0,SW,10.4,-,N/A,,Mostly Cloudy,230,2013-04-27 13:15:00
8:35 AM,55.6,46.8,72,30.17,10.0,WSW,6.9,-,N/A,,Scattered Clouds,250,2013-04-27 13:35:00
8:55 AM,56.8,46.9,69,30.17,10.0,WSW,8.1,-,N/A,,Clear,240,2013-04-27 13:55:00
9:15 AM,58.3,47.7,68,30.16,10.0,WSW,9.2,-,N/A,,Clear,250,2013-04-27 14:15:00
9:35 AM,59.4,48.0,66,30.16,10.0,WSW,6.9,-,N/A,,Clear,250,2013-04-27 14:35:00
9:55 AM,59.7,48.2,66,30.16,10.0,SW,6.9,-,N/A,,Clear,230,2013-04-27 14:55:00
10:15 AM,60.4,48.2,64,30.16,10.0,South,8.1,-,N/A,,Clear,180,2013-04-27 15:15:00
10:35 AM,61.7,48.6,62,30.16,10.0,SW,6.9,-,N/A,,Clear,230,2013-04-27 15:35:00
10:55 AM,62.1,48.4,61,30.15,10.0,SE,6.9,-,N/A,,Clear,140,2013-04-27 15:55:00
11:15 AM,61.5,48.2,62,30.15,10.0,SE,10.4,-,N/A,,Clear,140,2013-04-27 16:15:00
11:35 AM,62.1,48.4,61,30.15,10.0,SSE,10.4,-,N/A,,Clear,150,2013-04-27 16:35:00
11:55 AM,63.3,48.6,59,30.14,10.0,SSE,9.2,-,N/A,,Clear,160,2013-04-27 16:55:00
12:15 PM,63.7,48.6,58,30.13,10.0,SSE,12.7,17.3,N/A,,Clear,150,2013-04-27 17:15:00
12:35 PM,65.5,48.7,55,30.13,10.0,SSE,12.7,16.1,N/A,,Clear,160,2013-04-27 17:35:00
12:55 PM,65.8,48.4,53,30.12,10.0,South,11.5,-,N/A,,Clear,180,2013-04-27 17:55:00
1:15 PM,67.6,48.0,49,30.12,10.0,South,10.4,16.1,N/A,,Clear,180,2013-04-27 18:15:00
1:35 PM,68.2,46.9,47,30.11,10.0,South,11.5,19.6,N/A,,Clear,180,2013-04-27 18:35:00
1:55 PM,67.8,45.3,44,30.11,10.0,South,15.0,18.4,N/A,,Clear,170,2013-04-27 18:55:00
2:15 PM,68.5,45.7,44,30.10,10.0,South,16.1,23.0,N/A,,Clear,170,2013-04-27 19:15:00
2:35 PM,69.1,46.8,45,30.10,10.0,South,12.7,23.0,N/A,,Clear,180,2013-04-27 19:35:00
2:55 PM,69.3,46.6,44,30.09,10.0,SSE,13.8,19.6,N/A,,Clear,160,2013-04-27 19:55:00
3:15 PM,67.5,48.0,50,30.09,10.0,South,12.7,20.7,N/A,,Clear,170,2013-04-27 20:15:00
3:35 PM,66.6,48.6,52,30.08,10.0,South,13.8,21.9,N/A,,Clear,170,2013-04-27 20:35:00
3:55 PM,65.7,48.0,53,30.07,10.0,SSE,13.8,20.7,N/A,,Clear,150,2013-04-27 20:55:00
4:15 PM,65.5,48.0,53,30.07,10.0,SSE,13.8,19.6,N/A,,Clear,160,2013-04-27 21:15:00
4:35 PM,65.3,47.8,53,30.06,10.0,South,13.8,19.6,N/A,,Clear,170,2013-04-27 21:35:00
4:55 PM,64.9,47.7,54,30.06,10.0,SSE,12.7,17.3,N/A,,Clear,160,2013-04-27 21:55:00
5:15 PM,64.9,47.7,54,30.05,10.0,South,9.2,-,N/A,,Clear,170,2013-04-27 22:15:00
5:35 PM,64.6,47.7,54,30.05,10.0,SSE,10.4,-,N/A,,Clear,160,2013-04-27 22:35:00
5:55 PM,63.9,47.1,54,30.04,10.0,SSE,10.4,-,N/A,,Clear,150,2013-04-27 22:55:00
6:15 PM,61.9,47.3,59,30.04,10.0,SSE,9.2,-,N/A,,Clear,150,2013-04-27 23:15:00
6:35 PM,60.4,46.4,60,30.04,10.0,SSE,9.2,-,N/A,,Clear,160,2013-04-27 23:35:00
6:55 PM,59.5,45.9,61,30.04,10.0,South,8.1,-,N/A,,Clear,170,2013-04-27 23:55:00
7:15 PM,58.1,45.1,62,30.04,10.0,South,9.2,-,N/A,,Clear,170,2013-04-28 00:15:00
7:35 PM,57.2,44.6,63,30.04,10.0,South,8.1,-,N/A,,Clear,170,2013-04-28 00:35:00
7:55 PM,55.9,43.9,64,30.04,10.0,South,8.1,-,N/A,,Clear,170,2013-04-28 00:55:00
8:15 PM,55.0,43.7,66,30.03,10.0,South,8.1,-,N/A,,Clear,170,2013-04-28 01:15:00
8:35 PM,55.4,42.8,63,30.04,10.0,South,6.9,-,N/A,,Clear,170,2013-04-28 01:35:00
8:55 PM,54.7,43.2,65,30.04,10.0,South,4.6,-,N/A,,Clear,180,2013-04-28 01:55:00
9:15 PM,54.0,43.2,67,30.04,10.0,SSE,4.6,-,N/A,,Clear,160,2013-04-28 02:15:00
9:35 PM,53.8,43.2,67,30.04,10.0,South,3.5,-,N/A,,Clear,180,2013-04-28 02:35:00
9:55 PM,53.6,42.8,67,30.04,10.0,South,3.5,-,N/A,,Clear,170,2013-04-28 02:55:00
10:15 PM,53.6,42.3,65,30.04,10.0,Calm,Calm,-,N/A,,Clear,0,2013-04-28 03:15:00
10:35 PM,52.7,41.5,66,30.04,10.0,SSE,3.5,-,N/A,,Clear,160,2013-04-28 03:35:00
10:55 PM,51.6,40.8,67,30.03,10.0,Calm,Calm,-,N/A,,Clear,0,2013-04-28 03:55:00
11:15 PM,52.0,39.7,63,30.03,10.0,South,3.5,-,N/A,,Clear,170,2013-04-28 04:15:00
11:35 PM,50.9,39.4,65,30.02,10.0,South,3.5,-,N/A,,Clear,170,2013-04-28 04:35:00
11:55 PM,48.2,39.9,73,30.01,10.0,Calm,Calm,-,N/A,,Clear,0,2013-04-28 04:55:00